EW9798 Weather Reports


time (UTC)temp
C
wind
direction
speed
KPH
gust
KPH
rain 1hr
cm
rain 24hr
cm
rain mn
cm
humidity
%
barometer
mb
20260505181530 18 340 9.7 19.3 0.00 0.00 0.00 67 1015.5
20260505180032 17 327 11.3 22.5 0.00 0.00 0.00 68 1015.5
20260505174529 17 337 11.3 22.5 0.00 0.00 0.00 69 1015.5
20260505173029 17 335 9.7 24.1 0.00 0.00 0.00 70 1015.4
20260505170032 16 332 9.7 19.3 0.00 0.00 0.00 72 1015.5
20260505164531 16 352 8.0 17.7 0.00 0.00 0.00 73 1015.4
20260505163034 16 335 8.0 16.1 0.00 0.00 0.00 74 1015.4
20260505151614 14 19 4.8 9.7 0.00 0.00 0.00 84 1015.3
20260505150107 13 72 4.8 9.7 0.00 0.00 0.00 87 1015.3
20260505123030 11 93 4.8 9.7 0.00 0.00 0.00 89 1014.3
20260505121533 11 108 4.8 8.0 0.00 0.00 0.00 89 1014.1
20260505120030 11 96 6.4 9.7 0.00 0.00 0.00 89 1014.1
20260505114533 11 95 4.8 8.0 0.00 0.00 0.00 89 1014.0
20260505113029 12 81 6.4 11.3 0.00 0.00 0.00 88 1014.0
20260505111533 12 87 4.8 11.3 0.00 0.00 0.00 88 1013.9
20260505101549 12 87 6.4 12.9 0.00 0.00 0.00 87 1013.4
20260505094645 12 89 4.8 9.7 0.00 0.00 0.00 86 1013.2
20260505093031 13 94 6.4 9.7 0.00 0.00 0.00 86 1013.1
20260505091531 13 85 6.4 11.3 0.00 0.00 0.00 86 1013.0
20260505090036 13 90 4.8 8.0 0.00 0.00 0.00 85 1012.9
20260505083030 13 90 4.8 8.0 0.00 0.00 0.00 83 1012.8
20260505081533 14 82 4.8 8.0 0.00 0.00 0.00 81 1012.7
20260505080028 15 82 4.8 8.0 0.00 0.00 0.00 79 1012.5
20260505074532 15 95 4.8 8.0 0.00 0.00 0.00 75 1012.4
20260505071532 17 272 1.6 6.4 0.00 0.00 0.00 68 1012.2
20260505070032 18 261 4.8 16.1 0.00 0.00 0.00 65 1012.0
20260505064528 18 221 8.0 19.3 0.00 0.00 0.00 65 1011.9
20260505063030 18 210 8.0 19.3 0.00 0.00 0.00 64 1011.9
20260505061538 18 209 8.0 17.7 0.00 0.00 0.00 64 1011.8
20260505060037 18 214 8.0 24.1 0.00 0.00 0.00 63 1011.8
20260505054530 18 218 6.4 17.7 0.00 0.00 0.00 62 1011.8
20260505053033 18 237 6.4 22.5 0.00 0.00 0.00 60 1011.7
20260505051528 19 235 8.0 22.5 0.00 0.00 0.00 58 1011.6
20260505050107 20 225 8.0 22.5 0.00 0.00 0.00 57 1011.5
20260505041532 20 237 8.0 19.3 0.00 0.00 0.00 52 1010.9
20260505040042 20 230 6.4 14.5 0.00 0.00 0.00 51 1010.7
20260505034528 20 235 6.4 16.1 0.00 0.00 0.00 50 1010.5
20260505033107 21 238 8.0 16.1 0.00 0.00 0.00 48 1010.2
20260505031535 21 236 11.3 22.5 0.00 0.00 0.00 49 1010.0
20260505030032 22 234 6.4 16.1 0.00 0.00 0.00 49 1009.6
20260505023103 22 262 6.4 14.5 0.00 0.00 0.00 52 1009.5
20260505021532 23 288 3.2 9.7 0.00 0.00 0.00 51 1009.5
20260505020107 23 331 1.6 9.7 0.00 0.00 0.00 50 1009.5
20260505014531 25 281 4.8 11.3 0.00 0.00 0.00 48 1009.3
20260505013032 25 307 6.4 14.5 0.00 0.00 0.00 48 1009.3
20260505011531 25 309 9.7 19.3 0.00 0.00 0.00 47 1009.2
20260505010028 25 318 9.7 22.5 0.00 0.00 0.00 47 1009.2
20260505003032 25 321 11.3 24.1 0.00 0.00 0.00 46 1009.1
20260504234528 25 346 11.3 22.5 0.00 0.00 0.00 47 1009.0
20260504233031 26 341 8.0 19.3 0.00 0.00 0.00 48 1008.9
20260504231531 26 332 9.7 17.7 0.00 0.00 0.00 47 1009.0
20260504230039 26 335 8.0 19.3 0.00 0.00 0.00 47 1009.2
20260504223029 26 19 9.7 17.7 0.00 0.00 0.00 48 1009.5
20260504221530 25 25 9.7 19.3 0.00 0.00 0.00 49 1009.6
20260504211534 25 28 11.3 22.5 0.00 0.00 0.00 47 1010.2
20260504210032 25 29 11.3 20.9 0.00 0.00 0.00 46 1010.4
20260504204605 25 23 11.3 19.3 0.00 0.00 0.00 46 1010.5
20260504203108 25 38 11.3 20.9 0.00 0.00 0.00 46 1010.6
20260504200032 24 30 11.3 20.9 0.00 0.00 0.00 47 1010.8
20260504194539 24 30 11.3 19.3 0.00 0.00 0.00 48 1010.9
20260504193033 24 39 12.9 20.9 0.00 0.00 0.00 49 1011.0
20260504191537 23 42 11.3 22.5 0.00 0.00 0.00 50 1011.1
20260504190032 23 46 11.3 22.5 0.00 0.00 0.00 51 1011.3
20260504184531 22 55 11.3 20.9 0.00 0.00 0.00 54 1011.4
20260504183041 22 52 11.3 22.5 0.00 0.00 0.00 56 1011.4